SL-16 DEB

基本信息
目录编号:
22339
目录名称:
SL-16 DEB
国际标识:
1992-093AC
轨道中心:
EARTH
物体状态:
在轨
发射日期:
1992-12-25 UTC
轨道信息
数据来源: 国际轨道数据
星历时间: 2026-09-13T22:30:48+0800
半长轴: 7151.957km
偏心率: 0.012406
轨道倾角: 70.813°
近地点辐角: 25.513°
升交点赤经: 335.057°
平近点角: 335.205°
近地点: 685.092km
远地点: 862.548km
周期: 100.322分钟
每日圈数: 14.353753
详细信息
发射场:
TTMTR
轨道高度:
LEO
数据来源:
AOE Integration Group
参考系:
TEME
时间系统:
UTC
历元类型:
SGP4
2D轨道图
3D轨道图
轨道高度分析图
轨道倾角分析图
轨道综合分析图
查看轨道综合分析图